[[{"header":{"parameterUnit":"m.s-1","parameterCategory":1,"la1":30.2991,"la2":30.254,"lo1":-89.0895,"lo2":-89.0444,"dy":0.0017,"dx":0.0017,"nx":28,"ny":28,"refTime":"2025-04-12T21:00:00:Z","depth":0,"parameterNumber":2,"parameterNumberName":"U-component_of_WINDS"},"data":[0,0,0,0,0,0,0,0,0,0,0,0,0,0,0,0,0,0,0,0,0,0,0,0,0,0,0,0,0,0,0,0,0,0,0,0,0,0,0,0,0,0,0,0,0,0,0,0,0,0,0,0,0,0,0,0,0,0,2.6115,2.6115,0,2.6122,2.6123,2.6123,2.6086,2.6085,2.6084,2.6083,2.6092,2.6093,2.6094,0,0,0,0,0,0,0,0,0,0,0,0,0,2.6068,2.6069,2.6115,2.6115,2.6115,2.6122,2.6123,2.6123,2.6086,2.6085,2.6084,2.6082,2.6091,2.6093,2.6094,0,0,0,0,0,0,0,0,0,0,0,0,0,2.6083,2.6069,2.6115,2.6097,2.6096,2.6122,2.6123,2.6123,2.6086,2.6085,2.6083,2.6082,2.6091,2.6092,2.6094,2.6138,0,0,2.61,2.6101,0,0,0,0,0,0,0,0,2.6082,2.6085,2.61,2.6099,2.6097,2.6102,2.6109,2.6128,2.6087,2.609,2.6083,2.6081,2.6096,2.6098,2.6103,2.6138,2.6139,2.61,2.6101,2.6102,2.6103,0,0,0,0,0,0,0,2.6081,2.6084,2.6118,2.61,2.6098,2.6089,2.609,2.6113,2.6102,2.609,2.6087,2.6088,2.6095,2.6101,2.6103,2.6139,2.61,2.6102,2.6103,2.6104,2.6209,2.621,0,0,0,0,0,0,2.6082,2.6084,2.6117,2.6118,2.6086,2.6091,2.6092,2.6102,2.6102,2.61,2.609,2.6087,2.6099,2.61,2.6103,2.6152,2.6102,2.6104,2.6105,2.6207,2.6209,2.6211,0,0,0,0,0,0,2.6082,2.6086,2.6117,2.61,2.6103,2.6094,2.6105,2.6103,2.6108,2.6102,2.61,2.6097,2.6097,2.61,2.6129,2.6152,2.6105,2.6106,2.6205,2.6208,2.621,2.6252,0,0,0,0,0,0,2.608,2.6086,2.6102,2.6101,2.6104,2.6143,2.6107,2.6104,2.6112,2.6108,2.6109,2.6107,2.6096,2.6126,2.6131,2.6153,2.6108,2.6203,2.6206,2.6209,2.6248,2.6256,2.6262,0,0,0,0,0,2.6079,2.6114,2.6103,2.6108,2.6125,2.6145,2.6147,2.6133,2.6114,2.613,2.6125,2.6107,2.6149,2.613,2.6134,2.6158,2.6201,2.6205,2.6209,2.6245,2.6254,2.6262,0,0,0,0,0,0,2.6119,2.6114,2.6102,2.6138,2.6142,2.6139,2.6159,2.6143,2.6154,2.6149,2.6133,2.6133,2.6165,2.6164,2.6143,2.6199,2.6172,2.6176,2.6198,2.6206,2.6213,2.6211,2.6109,0,0,0,0,0,2.6132,2.6149,2.6143,2.6176,2.6179,2.6168,2.6177,2.6166,2.617,2.6171,2.6169,2.6174,2.6187,2.6197,2.621,2.6249,2.6247,2.6267,2.6274,2.6279,2.6283,2.6302,2.631,2.6223,2.6223,2.6223,0,0,2.616,2.6159,2.617,2.6184,2.6186,2.6203,2.617,2.619,2.6202,2.6174,2.6201,2.6199,2.6203,2.6237,2.6252,2.6238,2.6307,2.6284,2.6289,2.6289,2.6307,2.6315,2.6322,2.6226,2.6225,2.6225,0,0,2.6218,2.6219,2.6245,2.6248,2.6251,2.6244,2.625,2.6249,2.6247,2.6273,2.6252,2.6267,2.6292,2.6294,2.6299,2.6358,2.634,2.6362,2.6396,2.6415,2.6422,2.6428,2.6447,2.6454,2.6367,2.6367,2.6367,0,2.6251,2.6276,2.6261,2.6282,2.6288,2.6263,2.6289,2.6292,2.63,2.6304,2.6288,2.6318,2.6319,2.6352,2.6366,2.6372,2.6377,2.6361,2.6422,2.6428,2.6433,2.6451,2.6459,2.6369,2.6369,2.6369,2.6368,0,2.6316,2.6333,2.6354,2.6361,2.6369,2.6393,2.6381,2.6392,2.638,2.6375,2.6401,2.6401,2.6413,2.642,2.641,2.6451,2.6442,2.6425,2.6397,2.6444,2.6461,2.6468,2.6373,2.6372,2.6371,2.6371,0,0,2.6399,2.6397,2.6404,2.6406,2.6408,2.6421,2.6443,2.6454,2.6462,2.6468,2.6485,2.6507,2.649,2.6495,2.6485,2.6502,2.6545,2.6482,2.6481,2.6492,2.659,2.6601,2.661,2.6535,2.6536,2.6537,2.6589,0,2.6454,2.6491,2.6478,2.6515,2.653,2.6507,2.6526,2.6528,2.6524,2.6536,2.6531,2.6545,2.6523,2.6526,2.6542,2.6537,2.6565,2.6533,2.655,2.655,2.6547,2.6619,2.6632,2.668,2.6595,2.6596,2.6597,0,2.6523,2.6531,2.657,2.6567,2.6573,2.659,2.6598,2.661,2.6613,2.6608,2.6614,2.6599,2.662,2.6593,2.6621,2.66,2.6606,2.6605,2.6606,2.6606,2.6575,2.6619,2.6696,2.6702,2.6608,2.6607,2.6606,0,2.6578,2.6598,2.6623,2.6626,2.6624,2.6636,2.6636,2.6637,2.6644,2.6651,2.6655,2.6665,2.667,2.6678,2.6667,2.6648,2.6696,2.6668,2.6691,2.6692,2.6701,2.67,2.6779,2.6708,2.6708,2.6708,2.6708,0,2.6639,2.6664,2.6647,2.6662,2.6688,2.6673,2.6699,2.6697,2.6698,2.6712,2.6693,2.6706,2.6691,2.6704,2.6695,2.6718,2.6721,2.6718,2.6715,2.6718,2.6719,2.6721,2.6716,2.671,2.671,2.6709,2.6709,0,2.6704,2.6694,2.6719,2.6715,2.6715,2.6734,2.673,2.6744,2.6738,2.6756,2.676,2.675,2.6763,2.6753,2.6767,2.6761,2.6791,2.6785,2.679,2.6787,2.6811,2.6808,2.6892,2.6901,2.6827,2.6827,2.6828,0,2.6743,2.6761,2.6758,2.6766,2.6767,2.678,2.6786,2.6772,2.678,2.6783,2.6796,2.6808,2.6816,2.6839,2.6833,2.6843,2.6835,2.6864,2.6836,2.6839,2.6833,2.6831,2.6832,2.6869,2.6869,2.687,2.6871,0,2.6813,2.6807,2.6817,2.6825,2.6833,2.6839,2.6843,2.6851,2.6836,2.6846,2.6858,2.6865,2.6878,2.6889,2.6897,2.6897,2.6881,2.688,2.6885,2.6888,2.689,2.6887,2.6803,2.6877,2.6877,2.6876,2.6876,2.6876,2.6865,2.6879,2.6878,2.689,2.6891,2.6896,2.6908,2.6903,2.6913,2.6922,2.6914,2.6929,2.693,2.6939,2.694,2.6952,2.694,2.6948,2.695,2.6952,2.6954,2.6889,2.6953,2.6953,2.6953,2.6953,2.6953,0,2.6932,2.693,2.6941,2.6947,2.6956,2.694,2.6944,2.6952,2.6966,2.6968,2.6976,2.699,2.7001,2.6996,2.7005,2.7016,2.7009,2.7018,2.7016,2.7016,2.6966,2.6959,2.7024,2.7024,2.7024,2.7024,2.7024,2.7024,2.6967,2.699,2.6984,2.7006,2.7005,2.7019,2.7022,2.7026,2.7027,2.7043,2.7052,2.7049,2.7048,2.7057,2.7066,2.7064,2.7067,2.7079,2.7075,2.7027,2.702,2.7013,2.7007,2.7081,2.7081,2.7124,2.7125,2.7125]},{"header":{"parameterUnit":"m.s-1","parameterCategory":1,"la1":30.2991,"la2":30.254,"lo1":-89.0895,"lo2":-89.0444,"dy":0.0017,"dx":0.0017,"nx":28,"ny":28,"refTime":"2025-04-12T21:00:00:Z","depth":0,"parameterNumber":3,"parameterNumberName":"V-component_of_WINDS"},"data":[0,0,0,0,0,0,0,0,0,0,0,0,0,0,0,0,0,0,0,0,0,0,0,0,0,0,0,0,0,0,0,0,0,0,0,0,0,0,0,0,0,0,0,0,0,0,0,0,0,0,0,0,0,0,0,0,0,0,5.0969,5.0968,0,5.0952,5.0952,5.0952,5.0909,5.0908,5.0907,5.0906,5.0889,5.0889,5.089,0,0,0,0,0,0,0,0,0,0,0,0,0,5.0964,5.0964,5.0969,5.0968,5.0968,5.0952,5.0952,5.0952,5.0909,5.0908,5.0907,5.0906,5.0889,5.0889,5.089,0,0,0,0,0,0,0,0,0,0,0,0,0,5.0959,5.0964,5.0969,5.0945,5.0943,5.0952,5.0952,5.0952,5.0909,5.0908,5.0907,5.0905,5.0889,5.0889,5.089,5.092,0,0,5.0891,5.0892,0,0,0,0,0,0,0,0,5.0959,5.0959,5.0949,5.0947,5.0944,5.0931,5.0944,5.0941,5.091,5.0922,5.0906,5.0905,5.0904,5.0903,5.0903,5.092,5.0919,5.0892,5.0892,5.0892,5.0892,0,0,0,0,0,0,0,5.0959,5.0959,5.0962,5.0949,5.0946,5.0936,5.0933,5.0943,5.0921,5.0921,5.0918,5.0916,5.0903,5.0903,5.0902,5.0918,5.0891,5.0892,5.0892,5.0893,5.096,5.0961,0,0,0,0,0,0,5.0963,5.096,5.0963,5.0962,5.0948,5.0937,5.0934,5.0937,5.0921,5.0917,5.0918,5.0915,5.0902,5.0902,5.0902,5.0936,5.0892,5.0893,5.0893,5.0959,5.096,5.0962,0,0,0,0,0,0,5.0963,5.0964,5.0963,5.096,5.0959,5.0938,5.0942,5.0937,5.0937,5.0918,5.0914,5.0922,5.0901,5.0901,5.0916,5.0935,5.0893,5.0893,5.0957,5.0959,5.0961,5.1007,0,0,0,0,0,0,5.0963,5.0964,5.0975,5.096,5.0959,5.0978,5.0943,5.0938,5.0938,5.0934,5.0921,5.0917,5.09,5.0916,5.0917,5.0935,5.0894,5.0955,5.0958,5.096,5.1003,5.101,5.1016,0,0,0,0,0,5.0963,5.0988,5.0976,5.0977,5.0973,5.0979,5.0979,5.0958,5.094,5.0951,5.0939,5.0918,5.0933,5.0918,5.0918,5.0938,5.0954,5.0957,5.096,5.1,5.1009,5.1016,0,0,0,0,0,0,5.1005,5.0986,5.0972,5.0993,5.0988,5.0972,5.0985,5.0968,5.0968,5.0964,5.0938,5.0936,5.0955,5.0948,5.0931,5.0967,5.094,5.0944,5.097,5.0978,5.0984,5.0985,5.0894,0,0,0,0,0,5.1017,5.1024,5.1007,5.1027,5.1025,5.1006,5.1008,5.0993,5.0987,5.0984,5.0973,5.0968,5.0972,5.0975,5.0977,5.1003,5.0999,5.1016,5.1023,5.1028,5.1031,5.1044,5.1052,5.0973,5.0973,5.0973,0,0,5.1041,5.1032,5.1037,5.1035,5.103,5.1037,5.1004,5.1014,5.1019,5.0986,5.0999,5.0992,5.0984,5.1005,5.1014,5.1,5.1052,5.1032,5.1036,5.1037,5.1049,5.1056,5.1063,5.0975,5.0974,5.0974,0,0,5.1089,5.1083,5.1099,5.1095,5.1087,5.1074,5.1078,5.1065,5.1059,5.1073,5.1048,5.1054,5.1061,5.1057,5.1056,5.1104,5.1085,5.1106,5.1138,5.1152,5.1158,5.1164,5.1181,5.1187,5.1109,5.111,5.111,0,5.112,5.1131,5.111,5.1121,5.1121,5.1092,5.1109,5.1105,5.1099,5.11,5.1084,5.1093,5.1086,5.1106,5.1118,5.1118,5.1122,5.1107,5.1159,5.1164,5.1169,5.1185,5.1192,5.1112,5.1112,5.1112,5.1111,0,5.1169,5.1177,5.1191,5.1186,5.1188,5.1202,5.1184,5.1188,5.1174,5.1163,5.1177,5.1168,5.1169,5.1172,5.1158,5.119,5.1182,5.1164,5.1136,5.1179,5.1194,5.12,5.1116,5.1115,5.1114,5.1113,0,0,5.1241,5.1226,5.1231,5.1229,5.1219,5.1225,5.1238,5.1239,5.1244,5.1241,5.1251,5.1258,5.1241,5.124,5.1225,5.1237,5.1277,5.1217,5.1217,5.1228,5.1312,5.1326,5.1333,5.1264,5.1265,5.1266,5.1313,0,5.1286,5.1307,5.129,5.1314,5.1322,5.1295,5.1307,5.1302,5.1293,5.1298,5.1288,5.1293,5.1271,5.127,5.1281,5.127,5.1293,5.1266,5.1273,5.1274,5.1275,5.1341,5.1355,5.1399,5.1318,5.1319,5.132,0,5.134,5.1341,5.1367,5.1356,5.1359,5.1369,5.1369,5.1375,5.1369,5.1362,5.1362,5.1344,5.1356,5.1331,5.1348,5.133,5.1332,5.1327,5.1329,5.1328,5.1299,5.1341,5.1413,5.1419,5.1329,5.1328,5.1328,0,5.139,5.1397,5.1414,5.1413,5.1401,5.1409,5.1405,5.1399,5.1401,5.1401,5.1402,5.1404,5.1404,5.1406,5.1389,5.1372,5.1409,5.1381,5.1403,5.1403,5.141,5.141,5.1483,5.1413,5.1413,5.1413,5.1413,0,5.1442,5.1458,5.1436,5.1446,5.1464,5.1444,5.1463,5.1456,5.1451,5.1459,5.1437,5.1445,5.1423,5.1429,5.1416,5.1433,5.1433,5.1427,5.1424,5.1429,5.143,5.1429,5.1426,5.1415,5.1415,5.1414,5.1414,0,5.1499,5.1485,5.1501,5.149,5.1487,5.1501,5.1491,5.15,5.149,5.1501,5.1503,5.1487,5.1493,5.1477,5.1481,5.1473,5.1496,5.1488,5.1498,5.1495,5.1517,5.1515,5.1591,5.16,5.1526,5.1527,5.1527,0,5.1532,5.1545,5.1535,5.154,5.1537,5.1544,5.1546,5.1528,5.1531,5.1527,5.1537,5.1541,5.1544,5.1555,5.1544,5.1547,5.1538,5.1565,5.1538,5.1544,5.1538,5.1537,5.1539,5.157,5.1571,5.1572,5.1572,0,5.1593,5.1586,5.159,5.1593,5.1596,5.1597,5.1596,5.1601,5.1582,5.1587,5.1593,5.1595,5.16,5.1605,5.1606,5.1601,5.1584,5.1581,5.1586,5.1591,5.1596,5.1594,5.1512,5.1579,5.1578,5.1578,5.1577,5.1577,5.1639,5.1649,5.1644,5.165,5.1648,5.1648,5.1657,5.1648,5.1653,5.1656,5.1645,5.1654,5.165,5.1649,5.1647,5.1654,5.1642,5.1649,5.1651,5.1653,5.1656,5.1596,5.1654,5.1654,5.1654,5.1653,5.1653,0,5.1698,5.1694,5.17,5.17,5.1705,5.1689,5.1688,5.1693,5.1702,5.1699,5.1703,5.1711,5.1716,5.1706,5.171,5.1717,5.171,5.1719,5.1718,5.1717,5.1667,5.1662,5.1725,5.1725,5.1725,5.1725,5.1725,5.1725,5.1729,5.1746,5.1738,5.1754,5.175,5.1759,5.176,5.176,5.1758,5.1768,5.1773,5.1767,5.1761,5.1765,5.1769,5.1766,5.1768,5.178,5.1775,5.1728,5.1721,5.1714,5.1709,5.1781,5.1781,5.1824,5.1824,5.1825]}]]